User: anonymous   Login
Location: Cluj-Napoca
(46.7712°N, 23.6236°E)
Time: 00:51:18
(UTC+02:00)
Language:

ESTCUBE 1 - Orbit

View from above orbital plane
View from above orbital plane
View from above satellite
View from above satellite

Ground track
Ground track

The orbit data is extracted from the following two-line orbital elements,

1 39161U 13021C   21335.16868221  .00000286  00000-0  52696-4 0  9993
2 39161  97.9289  52.4375 0009025 346.0752  14.0210 14.72591551460283
Epoch (UTC): 01 December 2021 04:02:54
Eccentricity: 0.0009025
inclination: 97.9289°
perigee height: 646 km
apogee height: 659 km
right ascension of ascending node: 52.4375°
argument of perigee: 346.0752°
revolutions per day: 14.72591551
mean anomaly at epoch: 14.0210°
orbit number at epoch: 46028

The dashed part of the orbit path shows where the satellite is in the earth's shadow,  

DLR